| time (UTC) | temp F | wind direction | speed MPH | gust MPH | rain 1hr in | rain 24hr in | rain mn in | humidity % | barometer mb |
| 20260507164516 | 63 | 39 | 2.0 | 10.0 | 0.00 | 0.00 | 0.00 | 59 | 1012.8 |
| 20260507163023 | 62 | 41 | 2.0 | 7.0 | 0.00 | 0.00 | 0.00 | 58 | 1013.0 |
| 20260507161523 | 62 | 40 | 4.0 | 8.0 | 0.00 | 0.01 | 0.00 | 61 | 1013.1 |
| 20260507160027 | 61 | 68 | 2.0 | 8.0 | 0.00 | 0.03 | 0.00 | 63 | 1013.2 |
| 20260507154513 | 64 | 98 | 5.0 | 10.0 | 0.00 | 0.06 | 0.00 | 62 | 1013.1 |
| 20260507153018 | 64 | 2 | 3.0 | 6.0 | 0.00 | 0.06 | 0.00 | 55 | 1013.1 |
| 20260507151524 | 63 | 27 | 3.0 | 8.0 | 0.00 | 0.07 | 0.00 | 56 | 1013.2 |
| 20260507150026 | 62 | 84 | 2.0 | 7.0 | 0.00 | 0.07 | 0.00 | 59 | 1013.3 |
| 20260507144525 | 62 | 30 | 3.0 | 7.0 | 0.00 | 0.08 | 0.00 | 63 | 1013.5 |
| 20260507143016 | 62 | 8 | 1.0 | 7.0 | 0.00 | 0.08 | 0.00 | 64 | 1013.5 |
| 20260507141522 | 61 | 89 | 2.0 | 8.0 | 0.00 | 0.08 | 0.00 | 60 | 1013.6 |
| 20260507140033 | 63 | 72 | 3.0 | 9.0 | 0.00 | 0.08 | 0.00 | 61 | 1013.8 |
| 20260507134528 | 62 | 126 | 2.0 | 7.0 | 0.00 | 0.08 | 0.00 | 60 | 1013.9 |
| 20260507133028 | 62 | 20 | 2.0 | 9.0 | 0.00 | 0.08 | 0.00 | 60 | 1013.9 |
| 20260507131504 | 61 | 65 | 4.0 | 7.0 | 0.00 | 0.08 | 0.00 | 62 | 1014.0 |
| 20260507130004 | 60 | 50 | 2.0 | 7.0 | 0.00 | 0.08 | 0.00 | 62 | 1014.2 |
| 20260507124508 | 60 | 43 | 3.0 | 5.0 | 0.00 | 0.08 | 0.00 | 66 | 1014.2 |
| 20260507123015 | 59 | 70 | 2.0 | 5.0 | 0.00 | 0.08 | 0.00 | 66 | 1014.3 |
| 20260507121503 | 59 | 14 | 1.0 | 5.0 | 0.00 | 0.08 | 0.00 | 68 | 1014.4 |
| 20260507120003 | 59 | 51 | 1.0 | 6.0 | 0.00 | 0.08 | 0.00 | 67 | 1014.4 |
| 20260507114504 | 59 | 47 | 2.0 | 5.0 | 0.00 | 0.08 | 0.00 | 66 | 1014.4 |
| 20260507113010 | 60 | 347 | 3.0 | 5.0 | 0.00 | 0.08 | 0.00 | 65 | 1014.3 |
| 20260507111517 | 60 | 6 | 1.0 | 7.0 | 0.00 | 0.08 | 0.00 | 65 | 1014.6 |
| 20260507110004 | 61 | 118 | 2.0 | 7.0 | 0.00 | 0.08 | 0.00 | 62 | 1014.7 |
| 20260507104503 | 61 | 96 | 3.0 | 7.0 | 0.00 | 0.08 | 0.00 | 67 | 1014.7 |
| 20260507103008 | 60 | 171 | 5.0 | 8.0 | 0.00 | 0.08 | 0.00 | 67 | 1014.7 |
| 20260507101511 | 59 | 127 | 2.0 | 8.0 | 0.00 | 0.08 | 0.00 | 69 | 1014.8 |
| 20260507100016 | 60 | 129 | 4.0 | 9.0 | 0.00 | 0.08 | 0.00 | 74 | 1014.6 |
| 20260507094506 | 59 | 75 | 4.0 | 6.0 | 0.00 | 0.08 | 0.00 | 70 | 1014.7 |
| 20260507093010 | 58 | 102 | 1.0 | 3.0 | 0.00 | 0.08 | 0.00 | 73 | 1014.6 |
| 20260507091508 | 57 | 89 | 3.0 | 5.0 | 0.00 | 0.08 | 0.00 | 76 | 1014.6 |
| 20260507090012 | 56 | 28 | 1.0 | 4.0 | 0.00 | 0.08 | 0.00 | 75 | 1014.6 |
| 20260507084536 | 57 | 77 | 2.0 | 5.0 | 0.00 | 0.08 | 0.00 | 74 | 1014.7 |
| 20260507083004 | 56 | 92 | 0.0 | 3.0 | 0.00 | 0.08 | 0.00 | 77 | 1014.6 |
| 20260507081510 | 56 | 108 | 4.0 | 6.0 | 0.00 | 0.08 | 0.00 | 77 | 1014.4 |
| 20260507080013 | 56 | 150 | 4.0 | 6.0 | 0.00 | 0.08 | 0.00 | 77 | 1014.3 |
| 20260507074518 | 56 | 103 | 3.0 | 5.0 | 0.00 | 0.08 | 0.00 | 80 | 1014.3 |
| 20260507073022 | 55 | 105 | 3.0 | 5.0 | 0.00 | 0.08 | 0.00 | 85 | 1014.3 |
| 20260507071506 | 53 | 102 | 2.0 | 4.0 | 0.00 | 0.08 | 0.00 | 91 | 1014.2 |
| 20260507070012 | 51 | 20 | 1.0 | 2.0 | 0.00 | 0.08 | 0.00 | 93 | 1014.2 |
| 20260507064515 | 50 | 20 | 0.0 | 0.0 | 0.00 | 0.08 | 0.00 | 96 | 1014.3 |
| 20260507063020 | 49 | 20 | 0.0 | 0.0 | 0.00 | 0.08 | 0.00 | 96 | 1014.1 |
| 20260507061523 | 48 | 20 | 0.0 | 0.0 | 0.00 | 0.08 | 0.00 | 96 | 1013.9 |
| 20260507060012 | 48 | 20 | 0.0 | 0.0 | 0.00 | 0.08 | 0.00 | 96 | 1014.0 |
| 20260507054511 | 47 | 20 | 0.0 | 0.0 | 0.00 | 0.08 | 0.00 | 96 | 1013.9 |
| 20260507053016 | 46 | 20 | 0.0 | 0.0 | 0.00 | 0.08 | 0.00 | 96 | 1013.7 |
| 20260507051522 | 46 | 20 | 0.0 | 0.0 | 0.00 | 0.08 | 0.00 | 96 | 1013.6 |
| 20260507050039 | 46 | 20 | 0.0 | 0.0 | 0.00 | 0.08 | 0.00 | 95 | 1013.4 |
| 20260507044527 | 46 | 20 | 0.0 | 0.0 | 0.00 | 0.08 | 0.00 | 95 | 1013.3 |
| 20260507043014 | 46 | 20 | 0.0 | 0.0 | 0.00 | 0.08 | 0.00 | 95 | 1013.3 |
| 20260507041504 | 46 | 20 | 0.0 | 0.0 | 0.00 | 0.08 | 0.00 | 95 | 1013.3 |
| 20260507040004 | 46 | 20 | 0.0 | 0.0 | 0.00 | 0.08 | 0.00 | 95 | 1013.2 |
| 20260507034507 | 46 | 20 | 0.0 | 0.0 | 0.00 | 0.08 | 0.00 | 94 | 1013.2 |
| 20260507033009 | 46 | 20 | 0.0 | 0.0 | 0.00 | 0.08 | 0.00 | 95 | 1013.3 |
| 20260507031508 | 47 | 20 | 0.0 | 0.0 | 0.00 | 0.08 | 0.00 | 95 | 1013.3 |
| 20260507030004 | 47 | 20 | 0.0 | 0.0 | 0.00 | 0.08 | 0.00 | 95 | 1013.2 |
| 20260507024506 | 47 | 20 | 0.0 | 0.0 | 0.00 | 0.08 | 0.00 | 95 | 1013.1 |
| 20260507023008 | 47 | 20 | 0.0 | 0.0 | 0.00 | 0.08 | 0.00 | 94 | 1013.2 |
| 20260507021512 | 48 | 20 | 0.0 | 0.0 | 0.00 | 0.08 | 0.00 | 95 | 1013.2 |
| 20260507020013 | 48 | 20 | 0.0 | 0.0 | 0.00 | 0.08 | 0.00 | 94 | 1012.9 |
| 20260507014503 | 48 | 20 | 0.0 | 1.0 | 0.00 | 0.08 | 0.00 | 94 | 1012.9 |
| 20260507013007 | 48 | 20 | 0.0 | 0.0 | 0.00 | 0.08 | 0.00 | 94 | 1012.9 |
| 20260507011510 | 48 | 20 | 0.0 | 0.0 | 0.00 | 0.08 | 0.00 | 94 | 1013.0 |
| 20260507010023 | 48 | 20 | 0.0 | 0.0 | 0.00 | 0.08 | 0.00 | 94 | 1013.0 |
| 20260507004518 | 48 | 20 | 0.0 | 0.0 | 0.00 | 0.08 | 0.00 | 94 | 1013.0 |
| 20260507003004 | 48 | 20 | 0.0 | 0.0 | 0.00 | 0.08 | 0.00 | 93 | 1013.1 |
| 20260507001509 | 49 | 20 | 0.0 | 0.0 | 0.00 | 0.08 | 0.00 | 94 | 1013.1 |
| 20260507000012 | 49 | 20 | 0.0 | 0.0 | 0.00 | 0.08 | 0.00 | 94 | 1013.0 |
| 20260506234520 | 49 | 20 | 0.0 | 0.0 | 0.00 | 0.08 | 0.00 | 93 | 1013.0 |
| 20260506233020 | 49 | 20 | 0.0 | 0.0 | 0.00 | 0.08 | 0.00 | 93 | 1013.0 |
| 20260506231508 | 49 | 20 | 0.0 | 0.0 | 0.00 | 0.08 | 0.00 | 94 | 1012.9 |
| 20260506230010 | 49 | 20 | 0.0 | 0.0 | 0.00 | 0.08 | 0.00 | 93 | 1012.8 |
| 20260506224515 | 49 | 20 | 0.0 | 0.0 | 0.00 | 0.08 | 0.00 | 93 | 1012.8 |
| 20260506223022 | 49 | 20 | 0.0 | 0.0 | 0.00 | 0.08 | 0.00 | 93 | 1012.7 |
| 20260506221524 | 49 | 20 | 0.0 | 0.0 | 0.00 | 0.08 | 0.00 | 93 | 1012.7 |
| 20260506220008 | 49 | 20 | 0.0 | 3.0 | 0.00 | 0.08 | 0.00 | 93 | 1012.4 |
| 20260506214514 | 50 | 20 | 1.0 | 4.0 | 0.00 | 0.08 | 0.08 | 93 | 1012.4 |
| 20260506213019 | 50 | 20 | 1.0 | 5.0 | 0.00 | 0.08 | 0.08 | 92 | 1012.3 |
| 20260506211537 | 50 | 7 | 0.0 | 2.0 | 0.00 | 0.08 | 0.08 | 93 | 1012.3 |
| 20260506210032 | 50 | 7 | 1.0 | 2.0 | 0.00 | 0.08 | 0.08 | 93 | 1012.3 |
| 20260506204515 | 50 | 7 | 1.0 | 4.0 | 0.00 | 0.08 | 0.08 | 93 | 1012.2 |
| 20260506203016 | 50 | 7 | 0.0 | 0.0 | 0.00 | 0.08 | 0.08 | 94 | 1012.0 |
| 20260506201527 | 50 | 7 | 0.0 | 0.0 | 0.00 | 0.08 | 0.08 | 94 | 1012.1 |
| 20260506200029 | 50 | 7 | 0.0 | 0.0 | 0.00 | 0.08 | 0.08 | 93 | 1011.8 |
| 20260506194527 | 50 | 7 | 0.0 | 0.0 | 0.00 | 0.08 | 0.08 | 93 | 1011.6 |
| 20260506193012 | 51 | 7 | 0.0 | 0.0 | 0.00 | 0.08 | 0.08 | 92 | 1011.4 |
| 20260506191519 | 51 | 7 | 0.0 | 0.0 | 0.00 | 0.08 | 0.08 | 92 | 1011.3 |
| 20260506190005 | 51 | 7 | 0.0 | 0.0 | 0.00 | 0.08 | 0.08 | 91 | 1011.2 |
| 20260506184507 | 52 | 7 | 0.0 | 0.0 | 0.00 | 0.08 | 0.08 | 89 | 1010.9 |
| 20260506183010 | 53 | 7 | 0.0 | 0.0 | 0.00 | 0.08 | 0.08 | 88 | 1010.8 |
| 20260506181533 | 53 | 7 | 0.0 | 2.0 | 0.00 | 0.08 | 0.08 | 88 | 1010.7 |
| 20260506180019 | 53 | 7 | 0.0 | 2.0 | 0.00 | 0.08 | 0.08 | 88 | 1010.6 |
| 20260506174504 | 54 | 7 | 0.0 | 4.0 | 0.00 | 0.08 | 0.08 | 87 | 1010.3 |
| 20260506173007 | 54 | 7 | 1.0 | 4.0 | 0.00 | 0.09 | 0.08 | 86 | 1010.1 |
| 20260506171520 | 54 | 359 | 0.0 | 3.0 | 0.01 | 0.14 | 0.08 | 86 | 1009.9 |
| 20260506170018 | 54 | 359 | 1.0 | 4.0 | 0.03 | 0.14 | 0.08 | 87 | 1009.9 |